Location: Betra
(48.4113°N, 8.6634°E)
Time: 17:39:09
(UTC+00:00)

Cosmos 1328 - Pass Details

Date: 23 May 2024
Orbit: 502 x 523 km, 82.5° (Epoch: 16 June)

Event Time Altitude Azimuth Distance (km) Brightness Sun altitude
Rises 02:48:27 0° 180° (S) 2,602 6.9 -7.0°
Reaches altitude 10° 02:50:34 10° 177° (S) 1,726 6.0 -6.8°
Maximum altitude 02:54:18 63° 97° (E) 578 4.2 -6.3°
Drops below altitude 10° 02:58:07 10° 16° (NNE) 1,755 7.4 -5.8°
Sets 03:00:17 0° 13° (NNE) 2,652 8.3 -5.5°
